• Processing (Info)

  • MPEC 2015-B140: 2015 BM510

    The following Minor Planet Electronic Circular may be linked-to from your own Web pages, but must not otherwise be redistributed electronically.

    A form allowing access to any MPEC is at the bottom of this page.


    Read MPEC 2015-B139 Read MPEC 2015-B141


    M.P.E.C. 2015-B140                               Issued 2015 Jan. 27, 02:44 UT
    
         The Minor Planet Electronic Circulars contain information on unusual
             minor planets and routine data on comets.  They are published
       on behalf of Commission 20 of the International Astronomical Union by the
              Minor Planet Center, Smithsonian Astrophysical Observatory,
                              Cambridge, MA 02138, U.S.A.
    
                 Prepared using the Tamkin Foundation Computer Network
    
                                  MPC@CFA.HARVARD.EDU
                URL https://www.minorplanetcenter.net/    ISSN 1523-6714
    
                                      2015 BM510
    
    Observations:
         K15Bp0M* C2015 01 25.38900 08 28 14.806-02 17 37.45         19.8 wLEB140F51
         K15Bp0M  C2015 01 25.40205 08 28 08.627-02 18 09.92         19.4 wLEB140F51
         K15Bp0M  C2015 01 25.41513 08 28 02.411-02 18 42.65         19.8 wLEB140F51
         K15Bp0M KC2015 01 26.24944 08 22 16.15 -02 54 28.4          19.1 RqEB140H36
         K15Bp0M KC2015 01 26.25346 08 22 14.22 -02 54 38.4          19.5 RqEB140H36
         K15Bp0M KC2015 01 26.25747 08 22 12.23 -02 54 48.6          19.9 RqEB140H36
         K15Bp0M KC2015 01 26.26149 08 22 10.30 -02 54 58.5          19.2 RqEB140H36
         K15Bp0M KC2015 01 27.05617 08 16 22.01 -03 29 36.0                qEB140J95
         K15Bp0M KC2015 01 27.06980 08 16 15.31 -03 30 11.4                qEB140J95
         K15Bp0M KC2015 01 27.07746 08 16 11.57 -03 30 30.7          19.3 RqEB140J95
    
    Observer details:
    F51 Pan-STARRS 1, Haleakala.  Observers B. Gibson, T. Goggia, N. Primak,
        A. Schultz, M. Willman.  Measurers K. Chambers, S. Chastel, L. Denneau,
        H. Flewelling, M. Huber, E. Magnier, E. Schunova, R. Wainscoat, C. Waters,
        R. Weryk.  1.8-m Ritchey-Chretien + CCD.
    H36 Sandlot Observatory, Scranton.  Observer G. Hug.  0.56-m reflector + CCD.
    J95 Great Shefford.  Observer P. Birtwhistle.  0.40-m f/6.0 Schmidt-Cassegrain
        + CCD.
    
    Orbital elements:
    2015 BM510                                               Earth MOID = 0.0237 AU
    Epoch 2014 Dec. 9.0 TT = JDT 2457000.5                  MPC
    M 177.64225              (2000.0)            P               Q
    n   1.07130598     Peri.  356.61353     -0.06799781     +0.99728793
    a   0.9459330      Node   269.48613     -0.91469551     -0.07358794
    e   0.1214045      Incl.    1.61382     -0.39838225     -0.00126220
    P   0.92           H   25.2           G   0.15           U   8
    Residuals in seconds of arc
    150125 F51  0.0   0.0     150126 H36  0.3+  0.1-    150127 J95  0.1-  0.2-
    150125 F51  0.0   0.1+    150126 H36  0.3-  0.0     150127 J95  0.1+  0.3+
    150125 F51  0.0   0.1-    150126 H36  0.1+  0.3+
    150126 H36  0.1-  0.3-    150127 J95  0.1-  0.1-
    
    Ephemeris:
    2015 BM510               a,e,i = 0.95, 0.12, 2                   q = 0.8311
    Date    TT    R. A. (2000) Decl.     Delta      r     Elong.  Phase     V
    2014 12 28    09 45 46.7 +10 18 39   0.1069  1.0563   130.7    44.9    22.2
    ...
    2015 01 12    09 27 12.2 +05 02 13   0.07194 1.0448   147.4    30.4    20.9
    ...
    2015 01 20    08 58 53.1 +01 05 53   0.05626 1.0360   156.9    21.9    20.1
    ...
    2015 01 26    08 24 00.4 -02 41 49   0.04677 1.0282   158.3    20.7    19.6
    2015 01 27    08 16 50.1 -03 24 30   0.04543 1.0268   157.5    21.6    19.6
    2015 01 28    08 09 15.0 -04 08 27   0.04416 1.0253   156.3    22.8    19.6
    ...
    2015 02 03    07 15 01.6 -08 51 32   0.03825 1.0162   142.8    35.9    19.6
    ...
    2015 02 11    05 44 48.8 -14 42 49   0.03541 1.0028   115.8    62.3    20.2
    ...
    2015 02 26    03 10 45.9 -18 31 49   0.04342 0.9741    67.4   110.2    22.5
    
    A. U. Tomatic                (C) Copyright 2015 MPC           M.P.E.C. 2015-B140
    

    Read MPEC 2015-B139 Read MPEC 2015-B141


    MPEC number:

    Enter an MPEC number in one of the following forms:

    • 1997-B01 (the full form)
    • J97B01 (the packed version of the full form)
    • B01 (the abbreviated form)